STARLINK-1756 (46379 NORAD) Tracking and Keplerian Element Data

This shows tracking and keplerian element data for the satellite.

Feedback or suggestion? Click here.




ElementValue
Catalog46379
NameSTARLINK-1756
Epoch Orbit402
Epoch Day267.83334491
Epoch Year2020
RAAN329.7898
Inclination53.0002
Eccentricity0.0002176
Argument of Perigee302.7631
Mean Anonmoly290.2593
Mean Motion15.62792661
Decay Rate-0.00052457
L11 46379U 20062BG 20267.83334491 -.00052457 00000-0 -56978-3 0 9994
L22 46379 53.0002 329.7898 0002176 302.7631 290.2593 15.62792661 4026

Live tracking and technical data element details for STARLINK-1756 (NORAD 46379). STARLINK-1756 can be tracked NOW for your location showing map with azimuth and elevation plus other details from your city location.

Track the satellite on the map from your city or location and see movement details for azimuth, elevation, latitude, longitude, range, height, and movement on the map or in text.







IsCatalogInMostPopularTable: catalog: 46379, numindb: 3
Update: records affected: 1



GetName: 46379 STARLINK-1756

Hit Count: updated at: Thu, 24 Sep 2020 18:23:34 GMT